User: anonymous   Login
Location: Plum
(40.5000°N, 79.7500°W)
Time: 20:08:57
(UTC-05:00)
Language:

Cosmos 1825 - Orbit

View from above orbital plane
View from above orbital plane
View from above satellite
View from above satellite

Ground track
Ground track

The orbit data is extracted from the following two-line orbital elements,

1 17566U 87024A   17321.55770600  .00001167  00000-0  54269-4 0  9995
2 17566  82.5027 138.0890 0005078  54.6677 305.5031 15.18984456677126
Epoch (UTC): 17 November 2017 13:23:05
Eccentricity: 0.0005078
inclination: 82.5027°
perigee height: 505 km
apogee height: 512 km
right ascension of ascending node: 138.0890°
argument of perigee: 54.6677°
revolutions per day: 15.18984456
mean anomaly at epoch: 305.5031°
orbit number at epoch: 67712

The dashed part of the orbit path shows where the satellite is in the earth's shadow,  

DLR